Tracking 20621 objects as of 30-Mar-2020
HD Live streaming from Space Station
objects crossing your sky now

DMSP 5D-2 F9 DEB

Track DMSP 5D-2 F9 DEB now!
10-day predictions


NORAD ID: 39046
Int'l Code: 1988-006M
Perigee: 789.6 km
Apogee: 909.6 km
Inclination: 98.7 °
Period: 101.8 minutes
Semi major axis: 7220 km
RCS: 0.0338 m2 (small)
Launch date: February 3, 1988
Source: United States (US)
Launch site: AIR FORCE WESTERN TEST RANGE (AFWTR)

Note: This is SATELLITE DEBRIS
aabbcc
Your satellite tracking list
Your tracking list is empty




NASA's NSSDC Master Catalog

Two Line Element Set (TLE):
1 39046U 88006M   20089.51884846  .00000419  00000-0  23101-3 0  9991
2 39046  98.6720 297.5987 0083066  21.6727   8.3439 14.14961732374606
Source of the keplerian elements: AFSPC